When you browse on this site, cookies collect data to enhance your experience and personalize the content and advertising you see.
Visit our Privacy Policy to learn more. By continuing to use the site, you agree to this use of cookies and data.
  • En España
  • Lista de países
  • Para 7 días
  • Temperatura del agua
  • El tiempo en el mapa
  • Informadores
  • user-avatar
    Iniciar sesión

    Tiempo cada hora Manchester

    Hoy, 21 Septiembre, Sábado

    Tiempo Temperatura Precipitaciones Viento Presión Humedad
    00:00 +12°C° 0 mm 3 mps 759 mmHg 76%
    01:00 +12°C° 0 mm 4 mps 758 mmHg 77%
    02:00 +12°C° 0 mm 4 mps 757 mmHg 77%
    03:00 +12°C° 0 mm 4 mps 757 mmHg 78%
    04:00 +12°C° 0 mm 4 mps 756 mmHg 79%
    05:00 +12°C° 0 mm 4 mps 756 mmHg 79%
    06:00 +12°C° 0 mm 4 mps 755 mmHg 79%
    07:00 +13°C° 0 mm 5 mps 755 mmHg 74%
    08:00 +14°C° 0 mm 5 mps 755 mmHg 69%
    09:00 +16°C° 0 mm 5 mps 754 mmHg 64%
    10:00 +17°C° 0 mm 5 mps 754 mmHg 61%
    11:00 +19°C° 0 mm 6 mps 753 mmHg 58%
    12:00 +20°C° 0 mm 6 mps 753 mmHg 54%
    13:00 +21°C° 0 mm 5 mps 752 mmHg 54%
    14:00 +21°C° 0 mm 5 mps 752 mmHg 54%
    15:00 +22°C° 0 mm 5 mps 751 mmHg 55%
    16:00 +21°C° 0 mm 5 mps 751 mmHg 57%
    17:00 +20°C° 0 mm 5 mps 751 mmHg 60%
    18:00 +19°C° 0 mm 4 mps 750 mmHg 63%
    19:00 +18°C° 0 mm 4 mps 750 mmHg 64%
    20:00 +18°C° 0 mm 4 mps 750 mmHg 66%
    21:00 +17°C° 0 mm 4 mps 750 mmHg 68%
    22:00 +17°C° 0.1 mm 3 mps 750 mmHg 71%
    23:00 +17°C° 0.1 mm 3 mps 749 mmHg 73%

    Mañana, 22 Septiembre, Domingo

    Tiempo Temperatura Precipitaciones Viento Presión Humedad
    00:00 +16°C° 0.1 mm 3 mps 749 mmHg 75%
    01:00 +16°C° 0.2 mm 3 mps 748 mmHg 77%
    02:00 +16°C° 0.2 mm 3 mps 748 mmHg 79%
    03:00 +16°C° 0.2 mm 2 mps 747 mmHg 80%
    04:00 +16°C° 0.1 mm 3 mps 747 mmHg 81%
    05:00 +16°C° 0.1 mm 3 mps 746 mmHg 83%
    06:00 +16°C° 0.1 mm 3 mps 746 mmHg 84%
    07:00 +17°C° 0 mm 3 mps 746 mmHg 83%
    08:00 +18°C° 0 mm 3 mps 746 mmHg 82%
    09:00 +19°C° 0 mm 3 mps 745 mmHg 81%
    10:00 +20°C° 0.2 mm 4 mps 745 mmHg 79%
    11:00 +21°C° 0.2 mm 4 mps 745 mmHg 77%
    12:00 +21°C° 0.2 mm 5 mps 745 mmHg 75%
    13:00 +20°C° 1 mm 4 mps 745 mmHg 78%
    14:00 +18°C° 1 mm 3 mps 745 mmHg 81%
    15:00 +17°C° 1 mm 3 mps 745 mmHg 84%
    16:00 +16°C° 0 mm 2 mps 745 mmHg 85%
    17:00 +16°C° 0 mm 2 mps 745 mmHg 85%
    18:00 +16°C° 0 mm 2 mps 746 mmHg 85%
    19:00 +16°C° 0 mm 2 mps 746 mmHg 86%
    20:00 +15°C° 0 mm 2 mps 746 mmHg 86%
    21:00 +15°C° 0 mm 2 mps 746 mmHg 87%
    22:00 +15°C° 0 mm 2 mps 746 mmHg 88%
    23:00 +14°C° 0 mm 2 mps 747 mmHg 89%

    Pasado mañana, 23 Septiembre, Lunes

    Tiempo Temperatura Precipitaciones Viento Presión Humedad
    00:00 +14°C° 0 mm 1 mps 747 mmHg 90%
    01:00 +14°C° 0.1 mm 2 mps 747 mmHg 91%
    02:00 +14°C° 0.1 mm 2 mps 747 mmHg 92%
    03:00 +14°C° 0.1 mm 2 mps 748 mmHg 93%
    04:00 +14°C° 0.1 mm 2 mps 748 mmHg 92%
    05:00 +14°C° 0.1 mm 2 mps 748 mmHg 92%
    06:00 +13°C° 0.1 mm 3 mps 748 mmHg 92%
    07:00 +13°C° 0 mm 3 mps 748 mmHg 87%
    08:00 +14°C° 0 mm 3 mps 749 mmHg 82%
    09:00 +14°C° 0 mm 3 mps 749 mmHg 77%
    10:00 +15°C° 0 mm 4 mps 749 mmHg 72%
    11:00 +17°C° 0 mm 4 mps 749 mmHg 67%
    12:00 +17°C° 0 mm 5 mps 749 mmHg 62%
    13:00 +17°C° 0 mm 5 mps 748 mmHg 63%
    14:00 +17°C° 0 mm 5 mps 748 mmHg 63%
    15:00 +17°C° 0 mm 5 mps 748 mmHg 64%
    16:00 +16°C° 0.7 mm 5 mps 747 mmHg 72%
    17:00 +15°C° 0.7 mm 5 mps 746 mmHg 80%
    18:00 +14°C° 0.7 mm 5 mps 746 mmHg 88%
    19:00 +14°C° 0.5 mm 5 mps 746 mmHg 89%
    20:00 +14°C° 0.5 mm 5 mps 745 mmHg 89%
    21:00 +15°C° 0.5 mm 5 mps 745 mmHg 90%
    22:00 +15°C° 0.5 mm 4 mps 745 mmHg 91%
    23:00 +15°C° 0.5 mm 4 mps 745 mmHg 93%

    24 Septiembre, Martes

    Tiempo Temperatura Precipitaciones Viento Presión Humedad
    00:00 +16°C° 0.5 mm 3 mps 744 mmHg 94%
    01:00 +16°C° 0.3 mm 3 mps 744 mmHg 94%
    02:00 +16°C° 0.3 mm 3 mps 744 mmHg 94%
    03:00 +15°C° 0.3 mm 4 mps 744 mmHg 93%
    04:00 +16°C° 0.1 mm 3 mps 744 mmHg 94%
    05:00 +14°C° 0.1 mm 3 mps 743 mmHg 94%
    06:00 +14°C° 0.1 mm 3 mps 743 mmHg 94%
    07:00 +16°C° 0.5 mm 3 mps 742 mmHg 92%
    08:00 +16°C° 0.5 mm 3 mps 742 mmHg 90%
    09:00 +15°C° 0.5 mm 4 mps 742 mmHg 89%
    10:00 +17°C° 1 mm 4 mps 742 mmHg 85%
    11:00 +17°C° 1 mm 4 mps 742 mmHg 81%
    12:00 +17°C° 1 mm 5 mps 741 mmHg 78%
    13:00 +17°C° 0.4 mm 5 mps 741 mmHg 75%
    14:00 +17°C° 0.4 mm 5 mps 741 mmHg 72%
    15:00 +19°C° 0.4 mm 5 mps 741 mmHg 70%
    16:00 +16°C° 1.1 mm 5 mps 740 mmHg 76%
    17:00 +15°C° 1.1 mm 5 mps 740 mmHg 82%
    18:00 +13°C° 1.1 mm 5 mps 739 mmHg 88%
    19:00 +14°C° 0.7 mm 5 mps 739 mmHg 87%
    20:00 +14°C° 0.7 mm 5 mps 738 mmHg 87%
    21:00 +14°C° 0.7 mm 5 mps 738 mmHg 86%
    22:00 +14°C° 0.3 mm 6 mps 737 mmHg 87%
    23:00 +14°C° 0.3 mm 7 mps 737 mmHg 88%

    25 Septiembre, Miércoles

    Tiempo Temperatura Precipitaciones Viento Presión Humedad
    00:00 +14°C° 0.3 mm 7 mps 737 mmHg 89%
    01:00 +14°C° 1 mm 7 mps 737 mmHg 89%
    02:00 +14°C° 1 mm 7 mps 737 mmHg 90%
    03:00 +13°C° 1 mm 8 mps 737 mmHg 90%
    04:00 +13°C° 0.5 mm 8 mps 737 mmHg 89%
    05:00 +12°C° 0.5 mm 8 mps 737 mmHg 88%
    06:00 +12°C° 0.5 mm 7 mps 738 mmHg 88%
    07:00 +12°C° 0.1 mm 7 mps 738 mmHg 86%
    08:00 +12°C° 0.1 mm 7 mps 739 mmHg 85%
    09:00 +14°C° 0.1 mm 6 mps 739 mmHg 84%
    10:00 +14°C° 0.3 mm 6 mps 740 mmHg 82%
    11:00 +15°C° 0.3 mm 6 mps 740 mmHg 80%
    12:00 +15°C° 0.3 mm 6 mps 741 mmHg 78%
    13:00 +15°C° 0.3 mm 6 mps 741 mmHg 77%
    14:00 +15°C° 0.3 mm 5 mps 741 mmHg 77%
    15:00 +15°C° 0.3 mm 5 mps 741 mmHg 76%
    16:00 +15°C° 0.1 mm 5 mps 742 mmHg 79%
    17:00 +14°C° 0.1 mm 4 mps 742 mmHg 81%
    18:00 +14°C° 0.1 mm 3 mps 742 mmHg 83%
    19:00 +13°C° 0 mm 3 mps 742 mmHg 84%
    20:00 +13°C° 0 mm 3 mps 742 mmHg 85%
    21:00 +13°C° 0 mm 2 mps 742 mmHg 86%
    22:00 +13°C° 0 mm 2 mps 742 mmHg 88%
    23:00 +13°C° 0 mm 2 mps 741 mmHg 89%

    26 Septiembre, Jueves

    Tiempo Temperatura Precipitaciones Viento Presión Humedad
    00:00 +13°C° 0 mm 2 mps 741 mmHg 90%
    01:00 +12°C° 1 mm 3 mps 740 mmHg 92%
    02:00 +13°C° 1 mm 3 mps 739 mmHg 93%
    03:00 +13°C° 1 mm 4 mps 739 mmHg 94%
    04:00 +13°C° 0.9 mm 4 mps 738 mmHg 94%
    05:00 +14°C° 0.9 mm 4 mps 738 mmHg 93%
    06:00 +14°C° 0.9 mm 4 mps 737 mmHg 93%
    07:00 +14°C° 0.2 mm 5 mps 737 mmHg 90%
    08:00 +15°C° 0.2 mm 5 mps 738 mmHg 87%
    09:00 +15°C° 0.2 mm 6 mps 738 mmHg 84%
    10:00 +15°C° 0.5 mm 7 mps 738 mmHg 79%
    11:00 +16°C° 0.5 mm 7 mps 738 mmHg 73%
    12:00 +16°C° 0.5 mm 8 mps 738 mmHg 67%
    13:00 +16°C° 0.1 mm 8 mps 738 mmHg 67%
    14:00 +16°C° 0.1 mm 7 mps 738 mmHg 66%
    15:00 +15°C° 0.1 mm 7 mps 739 mmHg 66%
    16:00 +14°C° 0.4 mm 7 mps 739 mmHg 70%
    17:00 +14°C° 0.4 mm 6 mps 739 mmHg 74%
    18:00 +13°C° 0.4 mm 5 mps 739 mmHg 77%
    19:00 +13°C° 0.3 mm 5 mps 739 mmHg 79%
    20:00 +12°C° 0.3 mm 5 mps 739 mmHg 81%
    21:00 +12°C° 0.3 mm 5 mps 739 mmHg 83%
    22:00 +12°C° 0.2 mm 5 mps 739 mmHg 84%
    23:00 +12°C° 0.2 mm 5 mps 739 mmHg 84%
    Mostrar más